Regional Weather Roundup
Issued by NWS

Home | Current Version | Previous Version | Text Only | Print | Product List | Glossary On
Versions: 1 2 3 4 5 6 7 8 9 10 11 12 13 14 15 16 17 18 19 20 21 22 23 24 25 26 27 28 29 30 31 32 33 34 35 36 37 38 39 40 41 42 43 44 45 46 47 48 49 50
000
ASUS44 KOUN 310210
RWROK

WEATHER ROUNDUP FOR OKLAHOMA
NATIONAL WEATHER SERVICE NORMAN OK
900 PM CDT TUE AUG 30 2016

NOTE: "FAIR" INDICATES FEW OR NO CLOUDS BELOW 12,000 FEET WITH NO
      SIGNIFICANT WEATHER AND/OR OBSTRUCTIONS TO VISIBILITY.

OKZ001>007-009>012-014-015-017-310300-
NORTHWEST OKLAHOMA AND THE PANHANDLE

CITY           SKY/WX    TMP DP  RH WIND       PRES   REMARKS
GAGE           MOCLDY    72  68  87 CALM      30.15S
GUYMON         LGT RAIN  69  62  78 CALM      30.20R
ENID/WOODRING  MOCLDY    81  68  65 NW12      30.06R
$$

OKZ016-021>023-033>039-044-045-310300-
SOUTHWEST OKLAHOMA

CITY           SKY/WX    TMP DP  RH WIND       PRES   REMARKS
LAWTON/REGL    CLOUDY    81  69  67 SW9G20    30.06R
LAWTON/FT SILL CLOUDY    79  72  78 S12       30.04R
FREDERICK      CLOUDY    77  69  76 N14       30.04R
CLINTON        MOCLDY    73  67  81 N9        30.13R
HOBART         PTCLDY    75  68  78 N10       30.09R
ALTUS AFB      LGT RAIN  73  64  73 NW9       30.07F
$$

OKZ018>020-024>031-310300-
CENTRAL OKLAHOMA

CITY           SKY/WX    TMP DP  RH WIND       PRES   REMARKS
OKLAHOMA CITY  MOCLDY    84  67  56 E9        30.05R
OKC/WILEY POST CLOUDY    83  67  58 NE7       30.05R
OKC/TINKER AFB CLOUDY    79  69  71 E6        30.05R
STILLWATER     CLOUDY    82  69  64 SE6       30.05R
GUTHRIE        PTCLDY    80  71  74 CALM      30.05R
$$

OKZ008-013-054>072-310300-
NORTHEAST OKLAHOMA

CITY           SKY/WX    TMP DP  RH WIND       PRES   REMARKS
TULSA          CLOUDY    78  72  81 NW7       30.02R
TULSA/JONES    CLOUDY    76  76 100 CALM      30.04R
PONCA CITY     TSTM      77  70  79 NW5       30.05R
BARTLESVILLE   CLOUDY    79  70  74 CALM      30.05S
MUSKOGEE       PTCLDY    79  71  76 N3        30.04R
$$

OKZ032-040>043-046>053-073>077-310300-
SOUTH CENTRAL/SOUTHEAST OKLAHOMA

CITY           SKY/WX    TMP DP  RH WIND       PRES   REMARKS
ARDMORE/DWNTWN CLEAR     81  66  61 CALM      30.02R
MCALESTER      CLEAR     78  71  79 NE3       30.03R
$$





USA.gov is the U.S. government's official web portal to all federal, state and local government web resources and services.